This demonstration page uses our WeatherBlox Daily Observations layout. Learn more.

Hourly Observations for March 12, 2015

Temp ( °F °C ) Dew Point ( °F °C ) Humidity (%) Winds ( mph kmh ) Pressure ( in mb ) Visibility ( mi km ) Precip ( " mm )
12:15 am 00:15 Clear 45 7.3 26 -3.5 47 47 SE 12 19 30.24 1024 10 16.0934 0 0
12:35 am 00:35 Clear 45 7.3 26 -3.3 47 47 SE 12 19 30.24 1024 10 16.0934 0 0
12:55 am 00:55 Clear 44 6.9 27 -3 50 50 SSE 10 17 30.24 1024 10 16.0934 0 0
1:15 am 01:15 Clear 42 5.4 26 -3.3 54 54 SSE 7 11 30.24 1024 10 16.0934 0 0
1:35 am 01:35 Clear 41 5.1 26 -3.2 55 55 SSE 7 11 30.24 1024 10 16.0934 0 0
1:55 am 01:55 Clear 40 4.7 26 -3.2 57 57 SSE 8 13 30.24 1024 10 16.0934 0 0
2:15 am 02:15 Clear 40 4.5 27 -2.9 59 59 SSE 10 17 30.24 1024 10 16.0934 0 0
2:35 am 02:35 Clear 40 4.6 27 -2.8 59 59 SSE 10 17 30.21 1023 10 16.0934 0 0
2:55 am 02:55 Clear 41 5 28 -2.2 60 60 SSE 10 17 30.21 1023 10 16.0934 0 0
3:15 am 03:15 Clear 42 5.3 28 -2 60 60 SSE 10 17 30.21 1023 10 16.0934 0 0
3:35 am 03:35 Clear 42 5.8 29 -1.6 59 59 SSE 10 17 30.21 1023 10 16.0934 0 0
3:55 am 03:55 Clear 40 4.3 28 -2 64 64 SSE 9 15 30.18 1022 10 16.0934 0 0
4:15 am 04:15 Clear 41 5.1 29 -1.7 62 62 SSE 8 13 30.18 1022 10 16.0934 0 0
4:35 am 04:35 Clear 41 5.1 29 -1.9 61 61 SSE 9 15 30.18 1022 10 16.0934 0 0
4:55 am 04:55 Clear 41 4.9 29 -1.6 63 63 SSE 10 17 30.18 1022 10 16.0934 0 0
5:15 am 05:15 Clear 41 5.2 29 -1.9 61 61 SSE 10 17 30.18 1022 10 16.0934 0 0
5:35 am 05:35 Clear 41 4.8 28 -2 62 62 SSE 9 15 30.18 1022 10 16.0934 0 0
5:55 am 05:55 Clear 41 5 28 -2 61 61 SSE 8 13 30.18 1022 10 16.0934 0 0
6:15 am 06:15 Clear 42 5.6 29 -1.9 59 59 SSE 7 11 30.18 1022 10 16.0934 0 0
6:35 am 06:35 Clear 41 5 28 -2 61 61 S 6 9 30.18 1022 10 16.0934 0 0
6:55 am 06:55 Clear 41 4.8 28 -2 62 62 S 8 13 30.18 1022 10 16.0934 0 0
7:15 am 07:15 Clear 40 4.3 28 -2.2 63 63 S 8 13 30.18 1022 10 16.0934 0 0
7:35 am 07:35 Clear 40 4.5 29 -1.8 64 64 S 7 11 30.18 1022 10 16.0934 0 0
7:55 am 07:55 Sunny 41 5.1 29 -1.6 62 62 S 7 11 30.18 1022 10 16.0934 0 0
8:15 am 08:15 Sunny 41 5.2 29 -1.5 62 62 S 8 13 30.18 1022 10 16.0934 0 0
8:35 am 08:35 Sunny 42 5.6 30 -1.1 62 62 S 8 13 30.18 1022 10 16.0934 0 0
8:55 am 08:55 Sunny 44 6.5 31 -0.8 60 60 S 9 15 30.18 1022 10 16.0934 0 0
9:15 am 09:15 Sunny 46 7.7 31 -0.5 56 56 S 9 15 30.15 1021 10 16.0934 0 0
9:35 am 09:35 Sunny 48 9 32 -0.2 53 53 S 10 17 30.15 1021 10 16.0934 0 0
9:55 am 09:55 Sunny 51 10.3 32 0 49 49 S 13 20 30.15 1021 10 16.0934 0 0
10:15 am 10:15 Sunny 54 12.2 32 0 43 43 S 12 19 30.12 1020 10 16.0934 0 0
10:35 am 10:35 Sunny 55 12.8 32 0 42 42 S 13 20 30.12 1020 10 16.0934 0 0
10:55 am 10:55 Sunny 57 14 32 0 39 39 S 10 17 30.09 1019 10 16.0934 0 0
11:15 am 11:15 Sunny 59 15 32 -0.1 36 36 S 12 19 30.09 1019 10 16.0934 0 0
11:35 am 11:35 Sunny 61 16.2 32 0 33 33 S 14 22 30.09 1019 10 16.0934 0 0
11:55 am 11:55 Sunny 63 17.4 32 -0.1 31 31 SSW 14 22 30.09 1019 10 16.0934 0 0
12:15 pm 12:15 Sunny 64 17.9 32 0 30 30 S 16 26 30.06 1018 10 16.0934 0 0
12:35 pm 12:35 Sunny 65 18.3 32 0 29 29 S 16 26 30.06 1018 10 16.0934 0 0
12:55 pm 12:55 Sunny 65 18.4 32 0 29 29 S 16 26 30.06 1018 10 16.0934 0 0
1:15 pm 13:15 Sunny 68 19.8 32 0 27 27 S 17 28 30.06 1018 10 16.0934 0 0
1:35 pm 13:35 Sunny 69 20.4 32 0 26 26 S 20 31 30.06 1018 10 16.0934 0 0
1:55 pm 13:55 Sunny 70 21.2 32 -0.2 24 24 SSE 16 26 30.03 1017 10 16.0934 0 0
2:15 pm 14:15 Sunny 72 22.4 30 -1.3 21 21 S 20 31 30 1016 10 16.0934 0 0
2:35 pm 14:35 Sunny 74 23.1 27 -2.6 18 18 S 22 35 30 1016 10 16.0934 0 0
2:55 pm 14:55 Sunny 74 23.2 26 -3.5 17 17 S 23 37 30 1016 10 16.0934 0 0
3:15 pm 15:15 Sunny 74 23.2 26 -3.4 17 17 S 22 35 29.97 1015 10 16.0934 0 0
3:35 pm 15:35 Sunny 74 23.4 25 -3.9 16 16 SSW 22 35 29.97 1015 10 16.0934 0 0
3:55 pm 15:55 Sunny 74 23.6 25 -3.8 16 16 SSW 18 30 29.94 1014 10 16.0934 0 0
4:15 pm 16:15 Sunny 73 23 24 -4.6 15 15 S 15 24 29.97 1015 10 16.0934 0 0
4:35 pm 16:35 Sunny 74 23.6 24 -4.4 15 15 SSW 15 24 29.94 1014 10 16.0934 0 0
4:55 pm 16:55 Sunny 74 23.6 24 -4.3 15 15 SSW 16 26 29.94 1014 10 16.0934 0 0
5:15 pm 17:15 Sunny 74 23.5 24 -4.5 15 15 SSW 9 15 29.94 1014 10 16.0934 0 0
5:35 pm 17:35 Sunny 74 23.2 24 -4.7 15 15 SSW 15 24 29.97 1015 10 16.0934 0 0
5:55 pm 17:55 Sunny 74 23.5 24 -4.6 15 15 S 14 22 29.94 1014 10 16.0934 0 0
6:15 pm 18:15 Sunny 73 22.6 23 -5.1 15 15 S 15 24 29.97 1015 10 16.0934 0 0
6:35 pm 18:35 Sunny 72 22.2 24 -4.7 16 16 SSW 10 17 29.97 1015 10 16.0934 0 0
6:55 pm 18:55 Sunny 70 21.2 26 -3.4 19 19 S 10 17 29.97 1015 10 16.0934 0 0
7:15 pm 19:15 Sunny 67 19.3 27 -3 22 22 S 10 17 30 1016 10 16.0934 0 0
7:35 pm 19:35 Sunny 65 18.1 27 -3 24 24 SSE 8 13 30 1016 10 16.0934 0 0
7:55 pm 19:55 Clear 62 16.6 26 -3.1 26 26 SSE 9 15 30 1016 10 16.0934 0 0
8:15 pm 20:15 Clear 58 14.3 26 -3.2 30 30 SSE 9 15 30.06 1018 10 16.0934 0 0
8:35 pm 20:35 Clear 57 13.8 26 -3.3 31 31 SSE 9 15 30.06 1018 10 16.0934 0 0
8:55 pm 20:55 Clear 57 13.8 26 -3.2 31 31 SSE 9 15 30.06 1018 10 16.0934 0 0
9:15 pm 21:15 Clear 57 14 27 -3 31 31 SSE 8 13 30.06 1018 10 16.0934 0 0
9:35 pm 21:35 Clear 53 11.5 26 -3.3 36 36 SSE 7 11 30.09 1019 10 16.0934 0 0
9:55 pm 21:55 Clear 53 11.6 26 -3.1 36 36 S 8 13 30.09 1019 10 16.0934 0 0
10:15 pm 22:15 Clear 52 11.3 27 -3 37 37 SSE 7 11 30.12 1020 10 16.0934 0 0
10:35 pm 22:35 Clear 46 8 27 -2.8 47 47 SSE 7 11 30.15 1021 10 16.0934 0 0
10:55 pm 22:55 Clear 50 10.2 28 -2.1 42 42 S 7 11 30.15 1021 10 16.0934 0 0
11:15 pm 23:15 Clear 49 9.4 28 -2 45 45 S 8 13 30.15 1021 10 16.0934 0 0
11:35 pm 23:35 Clear 50 9.8 29 -1.8 45 45 S 8 13 30.15 1021 10 16.0934 0 0
11:55 pm 23:55 Clear 50 10 30 -1.2 46 46 S 8 13 30.15 1021 10 16.0934 0 0

Powered by AerisWeather